Location: Newark
(44.3100°N, 0.7769°W)
Time: 01:38:33
(UTC+00:00)

Envisat - Pass Details

Date: 28 November 2019
Orbit: 764 x 766 km, 98.1° (Epoch: 13 December)

Event Time Altitude Azimuth Distance (km) Brightness Sun altitude
Rises 18:20:39 0° 178° (S) 3,218 6.3 -19.9°
Reaches altitude 10° 18:23:00 10° 183° (S) 2,296 5.6 -20.3°
Maximum altitude 18:27:57 54° 260° (W) 928 3.7 -21.2°
Drops below altitude 10° 18:32:56 10° 338° (NNW) 2,312 5.6 -22.0°
Sets 18:35:19 0° 343° (NNW) 3,242 6.4 -22.5°
